FW4092 Weather Reports


time (UTC)temp
F
wind
direction
speed
knots
gust
knots
rain 1hr
in
rain 24hr
in
rain mn
in
humidity
%
barometer
mb
20260831133900 44 143 2.6 4.3 0.00 0.00 0.00 63 1012.1
20260831133357 44 151 1.7 4.3 0.00 0.00 0.00 63 1012.0
20260831133128 44 149 1.7 5.2 0.00 0.00 0.00 62 1011.9
20260831132400 44 150 1.7 5.2 0.00 0.00 0.00 61 1011.9
20260831131902 44 148 1.7 3.5 0.00 0.00 0.00 61 1011.9
20260831131358 44 144 1.7 3.5 0.00 0.00 0.00 62 1012.0
20260831130857 44 148 0.9 2.6 0.00 0.00 0.00 62 1012.0
20260831130358 44 144 0.0 2.6 0.00 0.00 0.00 63 1012.0
20260831125857 44 143 0.9 2.6 0.00 0.00 0.00 63 1012.0
20260831125354 43 143 1.7 2.6 0.00 0.00 0.00 63 1012.0
20260831125116 43 143 0.9 2.6 0.00 0.00 0.00 63 1012.1
20260831124848 43 143 0.9 2.6 0.00 0.00 0.00 63 1012.1
20260831124339 44 143 0.9 2.6 0.00 0.00 0.00 62 1012.1
20260831123833 44 143 1.7 4.3 0.00 0.00 0.00 62 1012.1
20260831123331 44 143 1.7 4.3 0.00 0.00 0.00 62 1012.2
20260831122831 44 141 1.7 3.5 0.00 0.00 0.00 62 1012.2
20260831122329 44 144 1.7 6.1 0.00 0.00 0.00 62 1012.2
20260831122110 45 144 2.6 6.1 0.00 0.00 0.00 61 1012.3
20260831121332 45 138 2.6 4.3 0.00 0.00 0.00 62 1012.4
20260831121110 45 142 2.6 4.3 0.00 0.00 0.00 63 1012.3
20260831120330 45 140 2.6 4.3 0.00 0.00 0.00 63 1012.3
20260831115829 46 136 1.7 4.3 0.00 0.00 0.00 62 1012.3
20260831115329 46 166 1.7 4.3 0.00 0.00 0.00 61 1012.4
20260831114829 46 208 0.9 2.6 0.00 0.00 0.00 60 1012.4
20260831114330 46 217 0.9 2.6 0.00 0.00 0.00 60 1012.4
20260831113829 46 225 0.0 2.6 0.00 0.00 0.00 59 1012.3
20260831113330 47 226 0.0 1.7 0.00 0.00 0.00 58 1012.4
20260831112823 47 226 0.0 1.7 0.00 0.00 0.00 57 1012.4
20260831112310 47 227 0.0 1.7 0.00 0.00 0.00 56 1012.4
20260831112140 48 227 0.0 1.7 0.00 0.00 0.00 54 1012.6
20260831111309 49 242 0.0 1.7 0.00 0.00 0.00 52 1012.7
20260831110551 49 248 0.0 0.0 0.00 0.00 0.00 53 1012.7
20260831105809 49 248 0.0 0.9 0.00 0.00 0.00 53 1012.7
20260831105544 49 248 0.0 0.9 0.00 0.00 0.00 53 1012.7
20260831104808 49 248 0.0 0.9 0.00 0.00 0.00 53 1012.6
20260831104309 49 265 0.0 0.9 0.00 0.00 0.00 54 1012.6
20260831103808 49 265 0.0 0.9 0.00 0.00 0.00 54 1012.6
20260831103310 49 272 0.0 0.9 0.00 0.00 0.00 55 1012.6
20260831102807 48 274 0.0 0.0 0.00 0.00 0.00 55 1012.6
20260831102306 48 274 0.0 0.0 0.00 0.00 0.00 55 1012.6
20260831101804 49 275 0.0 0.0 0.00 0.00 0.00 54 1012.6
20260831101538 49 275 0.0 1.7 0.00 0.00 0.00 53 1012.6
20260831101049 49 275 0.0 1.7 0.00 0.00 0.00 53 1012.6
20260831100303 49 294 0.0 0.9 0.00 0.00 0.00 53 1012.6
20260831095803 49 294 0.0 0.0 0.00 0.00 0.00 53 1012.7
20260831095311 49 294 0.0 0.0 0.00 0.00 0.00 53 1012.7
20260831094807 49 294 0.0 0.0 0.00 0.00 0.00 54 1012.7
20260831094301 50 294 0.0 0.0 0.00 0.00 0.00 54 1012.7
20260831093759 51 294 0.0 0.0 0.00 0.00 0.00 56 1012.7
20260831093256 51 294 0.0 0.0 0.00 0.00 0.00 55 1012.7
20260831092757 52 294 0.0 0.0 0.00 0.00 0.00 55 1012.8
20260831092255 53 294 0.0 0.0 0.00 0.00 0.00 54 1012.8
20260831091811 54 294 0.0 0.0 0.00 0.00 0.00 55 1012.9
20260831091804 53 294 0.0 0.0 0.00 0.00 0.00 54 1012.8
20260831090742 54 294 0.0 0.0 0.00 0.00 0.00 54 1013.0
20260831090236 54 294 0.0 0.0 0.00 0.00 0.00 54 1012.9
20260831085732 54 294 0.0 0.0 0.00 0.00 0.00 53 1013.0
20260831085240 54 294 0.0 0.0 0.00 0.00 0.00 52 1013.0
20260831085235 54 294 0.0 0.0 0.00 0.00 0.00 52 1012.9
20260831084212 54 294 0.0 0.0 0.00 0.00 0.00 52 1013.1
20260831083705 54 294 0.0 0.0 0.00 0.00 0.00 51 1013.1
20260831083159 54 294 0.0 0.0 0.00 0.00 0.00 51 1013.1
20260831082656 55 294 0.0 0.0 0.00 0.00 0.00 50 1013.1
20260831082150 55 294 0.0 0.0 0.00 0.00 0.00 50 1013.0
20260831081642 55 294 0.0 0.0 0.00 0.00 0.00 50 1013.1
20260831081136 55 294 0.0 0.0 0.00 0.00 0.00 49 1013.1
20260831080630 56 294 0.0 0.0 0.00 0.00 0.00 49 1013.2
20260831080124 56 294 0.0 0.0 0.00 0.00 0.00 48 1013.2
20260831075618 56 294 0.0 0.0 0.00 0.00 0.00 47 1013.2
20260831075112 56 294 0.0 0.0 0.00 0.00 0.00 47 1013.3
20260831074606 56 294 0.0 0.9 0.00 0.00 0.00 47 1013.2
20260831074334 56 294 0.0 0.9 0.00 0.00 0.00 47 1013.3
20260831073554 56 294 0.0 1.7 0.00 0.00 0.00 47 1013.2
20260831073319 57 294 0.0 1.7 0.00 0.00 0.00 47 1013.2
20260831073053 57 294 0.0 1.7 0.00 0.00 0.00 47 1013.2
20260831072547 57 294 0.0 1.7 0.00 0.00 0.00 47 1013.3
20260831072036 58 294 0.0 1.7 0.00 0.00 0.00 47 1013.2
20260831071530 58 294 0.0 0.9 0.00 0.00 0.00 46 1013.3
20260831071024 58 294 0.0 1.7 0.00 0.00 0.00 46 1013.4
20260831070521 58 294 0.0 1.7 0.00 0.00 0.00 45 1013.4
20260831070015 59 294 0.0 1.7 0.00 0.00 0.00 45 1013.4
20260831065510 59 294 0.0 1.7 0.00 0.00 0.00 45 1013.4
20260831065505 59 294 0.9 3.5 0.00 0.00 0.00 45 1013.3
20260831064456 60 297 0.9 3.5 0.00 0.00 0.00 46 1013.4
20260831063953 60 301 0.9 3.5 0.00 0.00 0.00 46 1013.4
20260831063444 60 292 0.9 3.5 0.00 0.00 0.00 46 1013.4
20260831062939 60 284 0.9 5.2 0.00 0.00 0.00 46 1013.4
20260831062432 61 279 1.7 5.2 0.00 0.00 0.00 46 1013.4
20260831061926 61 291 1.7 3.5 0.00 0.00 0.00 46 1013.4
20260831061420 61 294 1.7 3.5 0.00 0.00 0.00 46 1013.4
20260831060914 60 282 1.7 3.5 0.00 0.00 0.00 45 1013.4
20260831060408 60 280 1.7 4.3 0.00 0.00 0.00 46 1013.4
20260831055908 60 293 1.7 4.3 0.00 0.00 0.00 46 1013.3
20260831055408 60 299 1.7 2.6 0.00 0.00 0.00 45 1013.4
20260831054911 60 294 0.9 3.5 0.00 0.00 0.00 44 1013.4
20260831054652 60 298 0.9 3.5 0.00 0.00 0.00 44 1013.4
20260831053908 60 310 0.9 2.6 0.00 0.00 0.00 43 1013.5
20260831053644 60 315 0.9 2.6 0.00 0.00 0.00 43 1013.5
20260831052907 60 315 0.9 2.6 0.00 0.00 0.00 42 1013.5
20260831052408 60 318 0.9 2.6 0.00 0.00 0.00 41 1013.5
20260831051908 60 324 0.9 2.6 0.00 0.00 0.00 40 1013.5
20260831051408 61 336 0.9 2.6 0.00 0.00 0.00 39 1013.5
20260831050942 62 0 0.0 1.7 0.00 0.00 0.00 37 1013.5
20260831050908 61 345 0.9 2.6 0.00 0.00 0.00 38 1013.4
20260831050731 62 0 0.0 2.6 0.00 0.00 0.00 37 1013.5
20260831050718 62 0 0.0 1.7 0.00 0.00 0.00 37 1013.5
20260831045410 62 0 0.0 2.6 0.00 0.00 0.00 37 1013.4
20260831045151 63 5 0.0 2.6 0.00 0.00 0.00 37 1013.4
20260831044408 63 5 0.0 2.6 0.00 0.00 0.00 37 1013.4
20260831044155 63 12 0.0 1.7 0.00 0.00 0.00 36 1013.4
20260831043411 63 12 0.0 0.9 0.00 0.00 0.00 36 1013.4
20260831042905 63 12 0.0 0.9 0.00 0.00 0.00 35 1013.4
20260831042404 63 12 0.0 0.9 0.00 0.00 0.00 35 1013.4
20260831042129 64 13 0.0 0.9 0.00 0.00 0.00 34 1013.3
20260831041623 64 13 0.0 0.9 0.00 0.00 0.00 34 1013.3
20260831041106 65 13 0.0 0.9 0.00 0.00 0.00 34 1013.3
20260831040855 65 13 0.0 0.9 0.00 0.00 0.00 34 1013.3
20260831040341 65 13 0.0 0.9 0.00 0.00 0.00 33 1013.3
20260831035839 66 13 0.0 0.0 0.00 0.00 0.00 33 1013.3
20260831035833 65 13 0.0 0.0 0.00 0.00 0.00 33 1013.3
20260831034821 66 13 0.0 0.9 0.00 0.00 0.00 32 1013.2
20260831034316 66 13 0.0 0.9 0.00 0.00 0.00 32 1013.2
20260831033807 67 13 0.0 0.9 0.00 0.00 0.00 32 1013.2
20260831033302 67 13 0.0 0.9 0.00 0.00 0.00 31 1013.0
20260831032801 68 13 0.0 0.9 0.00 0.00 0.00 30 1013.0
20260831032258 69 13 0.0 1.7 0.00 0.00 0.00 29 1013.0
20260831032252 68 13 0.0 0.9 0.00 0.00 0.00 30 1013.0
20260831031241 69 13 0.0 1.7 0.00 0.00 0.00 29 1012.9
20260831030732 70 13 0.0 1.7 0.00 0.00 0.00 28 1012.9
20260831030225 70 13 0.9 4.3 0.00 0.00 0.00 28 1012.9
20260831030154 71 13 0.9 4.3 0.00 0.00 0.00 28 1012.9
20260831024941 72 9 0.9 4.3 0.00 0.00 0.00 26 1012.7
20260831024426 72 5 0.9 5.2 0.00 0.00 0.00 25 1012.7
20260831023703 73 5 0.9 5.2 0.00 0.00 0.00 24 1012.7
20260831023425 74 41 1.7 5.2 0.00 0.00 0.00 23 1012.7
20260831022906 74 0 0.9 5.2 0.00 0.00 0.00 22 1012.7
20260831022653 74 0 0.9 5.2 0.00 0.00 0.00 22 1012.7
20260831022140 75 44 1.7 5.2 0.00 0.00 0.00 22 1012.7
20260831021632 76 52 1.7 6.1 0.00 0.00 0.00 21 1012.8
20260831021130 76 5 1.7 7.0 0.00 0.00 0.00 21 1012.8
20260831020859 77 19 1.7 7.0 0.00 0.00 0.00 21 1012.7
20260831020115 77 24 1.7 4.3 0.00 0.00 0.00 20 1012.8
20260831015610 78 33 1.7 6.1 0.00 0.00 0.00 19 1012.8
20260831015104 78 53 1.7 5.2 0.00 0.00 0.00 19 1012.7
20260831014600 78 30 1.7 7.0 0.00 0.00 0.00 18 1012.7
20260831014057 79 5 1.7 7.0 0.00 0.00 0.00 19 1012.8
20260831013551 79 33 1.7 6.1 0.00 0.00 0.00 19 1012.8
20260831013038 79 36 1.7 6.1 0.00 0.00 0.00 18 1012.7
20260831012534 79 42 1.7 4.3 0.00 0.00 0.00 18 1012.6
20260831012031 80 38 2.6 7.8 0.00 0.00 0.00 17 1012.6
20260831011517 80 0 2.6 7.8 0.00 0.00 0.00 16 1012.7
20260831011016 80 0 1.7 5.2 0.00 0.00 0.00 16 1012.8
20260831010510 80 37 1.7 4.3 0.00 0.00 0.00 16 1012.9
20260831010237 80 52 2.6 7.0 0.00 0.00 0.00 16 1012.9
20260831005458 80 49 1.7 7.0 0.00 0.00 0.00 15 1012.9
20260831005043 81 41 1.7 4.3 0.00 0.00 0.00 16 1012.9
20260831004810 81 46 1.7 6.1 0.00 0.00 0.00 16 1012.9
20260831003433 80 80 1.7 4.3 0.00 0.00 0.00 15 1012.8
20260831003207 80 74 1.7 5.2 0.00 0.00 0.00 15 1013.0
20260831002427 80 78 0.9 5.2 0.00 0.00 0.00 15 1013.0
20260831001925 80 275 0.9 2.6 0.00 0.00 0.00 14 1013.0
20260831001425 80 259 1.7 3.5 0.00 0.00 0.00 13 1012.9
20260831000924 80 111 1.7 3.5 0.00 0.00 0.00 13 1013.0
20260831000425 80 84 1.7 5.2 0.00 0.00 0.00 13 1012.9
20260830235928 80 75 1.7 5.2 0.00 0.00 0.00 14 1013.0
20260830235425 80 91 1.7 4.3 0.00 0.00 0.00 14 1013.0
20260830234925 80 5 1.7 4.3 0.00 0.00 0.00 12 1013.0
20260830234713 80 323 1.7 5.2 0.00 0.00 0.00 12 1013.1
20260830233925 80 325 1.7 5.2 0.00 0.00 0.00 13 1013.2
20260830233425 79 96 0.9 5.2 0.00 0.00 0.00 12 1013.3
20260830232925 80 96 1.7 6.1 0.00 0.00 0.00 12 1013.4
20260830232425 79 80 2.6 7.8 0.00 0.00 0.00 11 1013.4
20260830231927 79 125 1.7 7.8 0.00 0.00 0.00 13 1013.5
20260830231425 80 46 1.7 7.0 0.00 0.00 0.00 16 1013.6
20260830230925 80 26 1.7 6.1 0.00 0.00 0.00 16 1013.5
20260830230424 79 60 1.7 6.1 0.00 0.00 0.00 18 1013.6
20260830230204 79 148 1.7 6.1 0.00 0.00 0.00 19 1013.8
20260830225416 78 68 1.7 6.1 0.00 0.00 0.00 20 1013.8
20260830224911 78 109 1.7 5.2 0.00 0.00 0.00 20 1013.8
20260830224404 77 14 0.9 6.1 0.00 0.00 0.00 21 1013.9
20260830223900 77 19 1.7 6.1 0.00 0.00 0.00 22 1014.0
20260830223352 77 59 2.6 6.1 0.00 0.00 0.00 22 1014.1
20260830222847 77 130 2.6 6.1 0.00 0.00 0.00 22 1014.2
20260830222340 77 132 1.7 6.1 0.00 0.00 0.00 22 1014.2
20260830221834 77 104 1.7 6.1 0.00 0.00 0.00 23 1014.2
20260830221330 77 99 1.7 5.2 0.00 0.00 0.00 24 1014.2
20260830220824 76 92 0.9 5.2 0.00 0.00 0.00 24 1014.3
20260830220316 76 89 0.9 4.3 0.00 0.00 0.00 24 1014.4
20260830220054 75 82 1.7 5.2 0.00 0.00 0.00 25 1014.4
20260830215305 75 86 1.7 5.2 0.00 0.00 0.00 25 1014.5
20260830214757 75 104 2.6 7.0 0.00 0.00 0.00 26 1014.5
20260830214253 75 335 2.6 7.0 0.00 0.00 0.00 26 1014.6
20260830213744 75 341 1.7 6.1 0.00 0.00 0.00 26 1014.7
20260830213241 75 50 0.9 3.5 0.00 0.00 0.00 26 1014.8
20260830212732 74 90 1.7 5.2 0.00 0.00 0.00 27 1015.0
20260830212226 74 40 2.6 7.0 0.00 0.00 0.00 27 1015.1
20260830211722 74 26 1.7 8.7 0.00 0.00 0.00 27 1015.2
20260830211214 74 75 1.7 8.7 0.00 0.00 0.00 28 1015.2
20260830210708 74 130 1.7 5.2 0.00 0.00 0.00 27 1015.2
20260830210202 74 124 1.7 5.2 0.00 0.00 0.00 27 1015.3
20260830205656 74 143 1.7 6.1 0.00 0.00 0.00 27 1015.3
20260830205432 74 130 1.7 6.1 0.00 0.00 0.00 28 1015.3
20260830204643 73 182 1.7 4.3 0.00 0.00 0.00 28 1015.4
20260830204138 73 121 1.7 7.0 0.00 0.00 0.00 28 1015.5
20260830203633 73 114 1.7 7.0 0.00 0.00 0.00 29 1015.6
20260830203126 72 202 1.7 4.3 0.00 0.00 0.00 30 1015.5
20260830202620 72 110 1.7 5.2 0.00 0.00 0.00 30 1015.5
20260830202117 71 70 1.7 5.2 0.00 0.00 0.00 34 1015.6
20260830201608 71 342 1.7 5.2 0.00 0.00 0.00 32 1015.7
20260830201102 71 198 1.7 5.2 0.00 0.00 0.00 32 1015.7
20260830200556 71 161 1.7 5.2 0.00 0.00 0.00 32 1015.6
20260830200050 71 163 1.7 4.3 0.00 0.00 0.00 33 1015.7
20260830195544 70 116 0.9 7.0 0.00 0.00 0.00 34 1015.7
20260830195044 70 177 0.9 7.0 0.00 0.00 0.00 35 1015.8
20260830194532 69 142 0.9 7.0 0.00 0.00 0.00 34 1015.9
20260830194028 69 130 1.7 7.0 0.00 0.00 0.00 34 1016.0
20260830193523 69 134 1.7 7.0 0.00 0.00 0.00 35 1016.0
20260830193051 70 101 0.9 6.1 0.00 0.00 0.00 35 1016.3
20260830193032 70 142 0.9 6.1 0.00 0.00 0.00 34 1016.1
20260830192015 69 92 1.7 7.0 0.00 0.00 0.00 37 1016.4
20260830191512 69 105 1.7 7.0 0.00 0.00 0.00 37 1016.4
20260830191022 68 114 1.7 6.1 0.00 0.00 0.00 38 1016.4
20260830190513 68 320 1.7 6.1 0.00 0.00 0.00 37 1016.4
20260830190012 68 88 1.7 6.1 0.00 0.00 0.00 37 1016.6
20260830185512 68 140 1.7 7.0 0.00 0.00 0.00 37 1016.6
20260830185014 68 146 2.6 7.0 0.00 0.00 0.00 37 1016.7
20260830184510 67 101 1.7 6.1 0.00 0.00 0.00 39 1016.6
20260830184014 67 109 1.7 5.2 0.00 0.00 0.00 41 1016.6
20260830183758 66 147 1.7 6.1 0.00 0.00 0.00 40 1016.6
20260830183010 66 105 2.6 6.1 0.00 0.00 0.00 41 1016.6
20260830182759 65 93 2.6 7.0 0.00 0.00 0.00 42 1016.7
20260830182014 65 190 1.7 7.8 0.00 0.00 0.00 43 1016.7
20260830181512 65 104 1.7 8.7 0.00 0.00 0.00 44 1016.7
20260830181015 65 90 2.6 8.7 0.00 0.00 0.00 44 1016.7
20260830180504 65 137 1.7 7.0 0.00 0.00 0.00 44 1016.8
20260830180243 64 118 1.7 7.0 0.00 0.00 0.00 45 1016.8
20260830175506 64 94 1.7 5.2 0.00 0.00 0.00 46 1016.9
20260830175004 63 190 0.9 4.3 0.00 0.00 0.00 47 1017.0
20260830174503 62 166 0.9 5.2 0.00 0.00 0.00 48 1017.0
20260830174004 62 142 1.7 5.2 0.00 0.00 0.00 49 1017.0
20260830173745 62 175 1.7 8.7 0.00 0.00 0.00 49 1017.1
20260830173009 61 165 1.7 5.2 0.00 0.00 0.00 50 1017.1
20260830173004 62 196 1.7 8.7 0.00 0.00 0.00 49 1017.0
20260830172003 60 113 1.7 7.0 0.00 0.00 0.00 51 1017.0
20260830171504 60 113 1.7 7.0 0.00 0.00 0.00 52 1017.0
20260830171003 59 170 0.9 6.1 0.00 0.00 0.00 53 1017.1
20260830170540 58 176 1.7 6.1 0.00 0.00 0.00 54 1017.1
20260830170520 58 114 1.7 4.3 0.00 0.00 0.00 54 1017.1
20260830165514 58 184 1.7 6.1 0.00 0.00 0.00 54 1017.3
20260830165005 58 131 1.7 5.2 0.00 0.00 0.00 55 1017.2
20260830164501 57 144 1.7 5.2 0.00 0.00 0.00 56 1017.2
20260830163959 56 147 1.7 6.1 0.00 0.00 0.00 58 1017.3
20260830163458 56 181 1.7 6.1 0.00 0.00 0.00 58 1017.5
20260830163002 55 107 1.7 6.1 0.00 0.00 0.00 59 1017.6
20260830162545 55 153 1.7 6.1 0.00 0.00 0.00 60 1017.6
20260830162306 54 143 1.7 6.1 0.00 0.00 0.00 61 1017.6
20260830161218 52 140 1.7 6.1 0.00 0.00 0.00 64 1017.6
20260830160439 51 155 1.7 4.3 0.00 0.00 0.00 64 1017.8
20260830155940 51 143 1.7 6.1 0.00 0.00 0.00 65 1017.8
20260830155427 50 178 0.9 6.1 0.00 0.00 0.00 65 1017.9
20260830154921 50 159 1.7 5.2 0.00 0.00 0.00 66 1017.9
20260830154701 49 151 1.7 4.3 0.00 0.00 0.00 67 1017.8
20260830153910 49 150 0.9 3.5 0.00 0.00 0.00 68 1017.8
20260830153642 48 144 0.9 5.2 0.00 0.00 0.00 69 1017.9
20260830153126 47 143 0.9 5.2 0.00 0.00 0.00 70 1017.9
20260830152352 46 144 0.9 3.5 0.00 0.00 0.00 71 1018.0
20260830152119 46 139 1.7 6.1 0.00 0.00 0.00 72 1018.0
20260830151616 45 142 1.7 6.1 0.00 0.00 0.00 73 1018.0
20260830150834 44 142 1.7 4.3 0.00 0.00 0.00 74 1018.0
20260830150327 44 135 1.7 5.2 0.00 0.00 0.00 74 1017.9
20260830145821 43 135 1.7 5.2 0.00 0.00 0.00 75 1018.0
20260830145315 43 148 1.7 6.1 0.00 0.00 0.00 77 1017.9
20260830145039 42 146 1.7 6.1 0.00 0.00 0.00 78 1018.0
20260830144756 41 156 1.7 4.3 0.00 0.00 0.00 79 1018.0
20260830143756 40 143 0.9 6.1 0.00 0.00 0.00 80 1018.0
20260830143253 40 150 0.9 6.1 0.00 0.00 0.00 82 1017.9
20260830142745 39 148 1.7 6.1 0.00 0.00 0.00 82 1017.9
20260830142241 39 140 2.6 6.1 0.00 0.00 0.00 82 1017.8
20260830141733 39 146 2.6 6.1 0.00 0.00 0.00 82 1017.8
20260830141227 38 155 1.7 5.2 0.00 0.00 0.00 83 1017.7
20260830140721 38 157 1.7 4.3 0.00 0.00 0.00 83 1017.6
20260830140215 38 130 1.7 4.3 0.00 0.00 0.00 84 1017.6
20260830135710 38 145 1.7 4.3 0.00 0.00 0.00 85 1017.6
20260830135444 38 142 1.7 4.3 0.00 0.00 0.00 86 1017.5
20260830134700 37 144 1.7 4.3 0.00 0.00 0.00 86 1017.6
20260830134151 37 136 1.7 3.5 0.00 0.00 0.00 86 1017.5
20260830133929 37 87 1.7 3.5 0.00 0.00 0.00 86 1017.6